sat.trackr.live / text

‹ back to catalog

INTELSAT 35E (IS-35E)

NORAD 42818 · 2017-041A

PAYLOAD ACTIVE UNKNOWN

§ Identity

Operator
Country
ITSO
Launch date
2017-07-05
Launch site
AFETR
Launch vehicle
Mass (kg)
RCS (m²)

Purposes: comms

External: N2YO · Heavens-Above · Gunter

§ Orbital elements

Epoch: 2026-09-20T03:04:14.054880Z

Period
1,436.11 min
Inclination
0.0150°
Eccentricity
0.0002137
Mean motion
1.00271024 rev/d
Perigee alt
35,777.8 km
Apogee alt
35,795.8 km
Semi-major
42,164.9 km
B*
0.0000e+0
RAAN
127.8369°
Arg perigee
53.0815°
Mean anomaly
189.6751°
Rev number
3,376

§ Raw data

INTELSAT 35E (IS-35E)1 42818U 17041A   26263.12794045 -.00000242  00000+0  00000+0 0  99942 42818   0.0150 127.8369 0002137  53.0815 189.6751  1.00271024 33765

JSON: /api/v1/satellites/42818 · /tle

For live sub-satellite position, see the globe view (requires WebGL).

§ Visibility from observer

Set your observer location to see the next 7 days of passes ≥ 10°. The values pass through the URL so the page stays shareable.

No JS? Fill the form by hand. The geolocation button needs JavaScript.